Weather WX

World > North America > United States > Pennsylvania

Clearfield, Pennsylvania Regional Weather

Lat: 41.02N, Lon: 78.44W
Wx Zone: PAZ017
Warning FLW WEATHER ALERT - FLASH FLOOD WATCH (More Info. Click Here) Warning
Feedback

Clearfield, PA Regional Weather

Expires:201906210000;;810111
ASUS41 KCTP 202303
RWRCTP

REGIONAL WEATHER ROUNDUP
NATIONAL WEATHER SERVICE STATE COLLEGE PA
700 PM EDT THU JUN 20 2019

Note: "fair" indicates few or no clouds below 12,000 feet with no 
significant weather and/or obstructions to visibility.

* = STATION THAT DOES NOT REPORT PRECIPITATION /E.G. RAIN...SNOW...ETC/
    THUNDER OR FOG.


PAZ004>006-010>012-017>019-024>028-033>037-041-042-045-046-049>053-210000-
CENTRAL PENNSYLVANIA
  
CITY           SKY/WX    TMP DP  RH WIND       PRES   REMARKS
BRADFORD       LGT RAIN  67  65  93 W3        29.58F FOG              
DUBOIS         CLOUDY    67  65  93 CALM      29.56F                  
CLEARFIELD     FAIR      72  67  84 NW6       29.57S                  
JOHNSTOWN      FAIR      70  63  78 W10       29.60F                  
ALTOONA        FAIR      73  65  75 SW7       29.58F                  
STATE COLLEGE  PTSUNNY   73  66  78 W5        29.56R                  
WILLIAMSPORT   CLOUDY    72  65  78 W8        29.50R                  
SELINSGROVE    CLOUDY    77  67  71 VRB5      29.51R                  
FT INDIANTOWN  PTSUNNY   79  69  71 W9        29.51R                  
CAPITAL CITY   FAIR      81  65  58 W8        29.51R                  
HARRISBURG     CLOUDY    79  68  69 W9        29.50S                  
YORK           FAIR      80  67  64 W5        29.52F                  
$$


SKY/WX - Weather  TMP - Temperature  DP - Dew Point  RH - Relative Humidity
WIND - Wind Direction/Speed PRES - Barometric Pressure VSB - Visibility
WCI - Wind Chill Index E13G22 Wind - East Wind 13 mph/Gusts of 22 mph